LEGION 2

Last updated on Sat Jul 05 2025 00:02:30 GMT+0000 (Coordinated Universal Time)

1 59626U 24081B 25185.54610815 .00003896 00000+0 20105-3 0 9990 2 59626 97.5362 261.3737 0002592 44.1576 315.9864 15.16918327 64847
UTC large
Height (km)
Speed (km/s)
/
Latitude / Longitude
Inclination (degrees)
Orbital Period (minutes)
Azimuth
Elevation
Range (km)
Doppler Factor

Next 0 passes for location: London (51.5072 / 0.1276)

Sorry there are no passes over London.